Date,TemperatureHighF,TemperatureAvgF,TemperatureLowF,DewpointHighF,DewpointAvgF,DewpointLowF,HumidityHigh,HumidityAvg,HumidityLow,PressureMaxIn,PressureMinIn,WindSpeedMaxMPH,WindSpeedAvgMPH,GustSpeedMaxMPH,PrecipitationSumIn
2013-6-29,80,72,65,64,59,56,78,64,50,29.92,29.85,12,5,27,0.00
2013-6-30,79,69,59,62,58,53,93,70,47,30.08,29.92,6,2,17,0.00
2013-7-1,83,70,57,62,56,53,88,65,42,30.16,30.08,6,1,18,0.00
2013-7-2,82,70,60,65,59,55,88,69,46,30.14,30.02,4,1,11,0.00
2013-7-3,82,70,59,65,60,56,94,73,44,30.04,29.93,9,1,16,0.02
2013-7-4,85,74,61,65,60,55,84,63,40,29.98,29.87,12,5,20,0.02
2013-7-5,85,76,67,69,64,58,78,66,56,29.91,29.81,13,5,23,0.00
2013-7-6,88,77,71,70,66,63,78,69,55,29.86,29.79,11,6,21,0.00
2013-7-7,91,82,73,75,69,63,78,66,51,29.88,29.79,13,6,22,0.00
2013-7-8,89,80,76,76,72,68,86,75,63,29.96,29.88,8,3,16,0.00
2013-7-9,92,83,76,79,74,71,87,75,58,29.93,29.84,7,3,15,0.01
2013-7-10,84,76,70,73,66,-100,89,74,58,30.07,29.92,6,2,15,0.01
2013-7-11,85,74,63,67,64,60,92,72,50,30.08,29.94,8,2,15,0.00
2013-7-12,88,78,68,73,66,60,80,69,59,29.98,29.89,10,5,23,0.00
2013-7-13,86,78,71,76,68,62,82,71,61,29.96,29.90,7,4,21,0.00
2013-7-14,85,77,67,68,65,61,87,67,50,30.13,29.96,9,3,19,0.01
2013-7-15,87,76,65,74,68,62,92,77,58,30.18,30.09,7,1,16,0.01
2013-7-16,88,79,68,73,69,66,96,75,54,30.24,30.14,6,2,12,0.00
2013-7-17,90,81,72,75,72,69,92,74,56,30.28,30.15,8,2,14,0.00
2013-7-18,91,82,73,74,71,69,87,70,50,30.15,29.91,13,6,22,0.00
2013-7-19,92,82,75,76,69,63,79,65,43,29.93,29.85,9,3,14,0.00